www.pogodaiklimat.ru

Погода и климат >> Архив погоды >> Филиппины >> Замбоанга


ПОГОДА в Замбоанге

  • Прогноз погоды в Замбоанге
  • Монитор погоды в Замбоанге

АРХИВ ПОГОДЫ в Замбоанге

Время (UTC), дата Ветер
(напр.,м/с)
 
Видим.   Явления Облачность Т
(С)
Тd
(С)
f
(%)
Тe
(С)
Тes
(С)
Комфортность P
(гПа)
Po
(гПа)
Тmin
(С)
Tmax
(С)
R
(мм)
R24
(мм)
S
(см)
18 13.09 штиль 0 10 км {дождь} 10/3 500 м
[Cu med, cong Ac As]
+26.0 +24.9 94 +37 +37 очень
душно
1009.9 1009.1 0.2
21 13.09 ЮЗ 5 8000 м слаб. дождь 10/3 480 м
[Frnb As op]
+24.0 +22.6 92 +31 +31 очень
душно
1011.0 1010.2 8
00 14.09 З 2 9000 м мгла {дождь} 10/3 480 м
[Cu Sc Ac As]
+24.7 +23.8 95 +34 +35 очень
душно
1011.7 1010.9 +23.2 25
03 14.09 Ю 3 8000 м мгла {туман} 10/1 500 м
[Cu Sc Ac As]
+29.6 +23.4 69 +40 +45 очень
душно
1011.9 1011.1
06 14.09 Ю 2 8000 м мгла {туман} 10/3 480 м
[Cb cap Ac As]
+31.0 +25.1 71 +45 +48 опасность
перегрева
1009.7 1008.9
09 14.09 В 2 10 км мгла {туман} 9/1 500 м
[Cu med, cong Ac As]
+29.6 +25.2 77 +43 +43 опасность
перегрева
1009.8 1009.0
12 14.09 штиль 0 10 км {туман} 8/1 500 м
[Cu Sc Ac As]
+27.1 +25.1 89 +39 +39 очень
душно
1011.5 1010.7 +31.5
15 14.09 штиль 0 10 км 9/1 500 м
[Cu med, cong Ac As Cs]
+25.7 +24.5 93 +36 +36 очень
душно
1012.5 1011.7
18 14.09 штиль 0 10 км 8/1 500 м
[Cu med, cong Ac As Cs]
+25.1 +23.9 93 +34 +34 очень
душно
1011.6 1010.8
21 14.09 штиль 0 10 км 6/1 500 м
[Cu med, cong Ac trans Cs]
+24.4 +23.6 95 +33 +33 очень
душно
1011.3 1010.5
00 15.09 СВ 2 10 км мгла {туман} 8/1 500 м
[Cu med, cong Cs]
+27.9 +24.7 83 +40 +44 очень
душно
1012.8 1012.0 +23.5
03 15.09 штиль 0 9000 м мгла {туман} 9/1 500 м
[Cu med, cong Cs]
+31.8 +24.7 66 +45 +66 опасность
перегрева
1012.1 1011.3
06 15.09 В 2 9000 м мгла {туман} 9/3 500 м
[Cu med, cong Cs]
+32.7 +25.0 64 +46 +56 опасность
перегрева
1009.5 1008.7
09 15.09 штиль 0 10 км мгла {туман} 8/1 500 м
[Cu med, cong Ac As Cs]
+30.0 +23.3 67 +40 +41 очень
душно
1009.4 1008.6
12 15.09 штиль 0 10 км {туман} 8/1 500 м
[Cu med, cong Ac As Cs]
+27.0 +24.6 87 +38 +38 очень
душно
1011.0 1010.2 +33.8
15 15.09 С 2 10 км 9/1 500 м
[Cu med, cong Ac As Cs]
+25.6 +24.1 91 +35 +35 очень
душно
1011.5 1010.7
18 15.09 СВ 2 10 км 9/4 500 м
[Cu Sc Cs]
+24.8 +23.2 91 +33 +33 очень
душно
1010.5 1009.7
21 15.09 штиль 0 10 км 8/1 500 м
[Cu med, cong Cs]
+24.2 +22.8 92 +32 +32 очень
душно
1011.4 1010.8
00 16.09 С 2 8000 м мгла {туман} 4/1 500 м
[Cu med, cong Ci fib]
+28.0 +25.4 86 +41 +46 опасность
перегрева
1012.0 1011.2 +23.2
03 16.09 С 2 8000 м мгла {туман} 4/3 500 м
[Cu med, cong Ci fib]
+32.4 +22.6 56 +42 +56 опасность
перегрева
1011.4 1010.6 +23.2
06 16.09 Ю 3 8000 м мгла {туман} 9/3 500 м
[Cu med, cong Cs]
+33.6 +24.6 59 +46 +54 опасность
перегрева
1008.6 1007.8
09 16.09 ЮВ 2 7000 м мгла {туман} 8/3 500 м
[Cu med, cong Cs]
+31.0 +24.5 68 +43 +44 опасность
перегрева
1008.5 1007.7
12 16.09 СВ 1 8000 м 8/3 500 м
[Cu med, cong Cs]
+27.5 +24.0 81 +38 +38 очень
душно
1010.2 1009.4 +34.0
15 16.09 штиль 0 10 км 9/1 500 м
[Cu med, cong Ac As Cs]
+26.0 +24.1 89 +36 +36 очень
душно
1010.9 1010.1
18 16.09 штиль 0 10 км 9/1 500 м
[Cu med, cong Cs]
+25.1 +23.3 90 +34 +34 очень
душно
1009.9 1009.1
21 16.09 штиль 0 10 км 8/1 500 м
[Cu med, cong Ac As Cs]
+24.6 +23.0 91 +33 +33 очень
душно
1010.0 1009.2
00 17.09 С 2 9000 м мгла {туман} 9/3 500 м
[Cu med, cong Ac As]
+26.8 +24.4 87 +38 +39 очень
душно
1011.7 1010.9 +23.5
03 17.09 В 2 10 км мгла {туман} 8/3 480 м
[Cb cap Ac As Ci fib]
+32.0 +23.7 62 +43 +53 опасность
перегрева
1011.4 1010.6
06 17.09 В 2 10 км мгла {туман} 6/4 500 м
[Cu med, cong Ac As]
+32.9 +23.7 59 +44 +52 опасность
перегрева
1009.3 1008.5
09 17.09 В 3 9000 м мгла {туман} 6/3 480 м
[Cb cap Ac As Ci fib]
+29.8 +23.7 70 +41 +41 опасность
перегрева
1009.5 1008.7
12 17.09 штиль 0 9000 м 5/1 500 м
[Cu med, cong Ac As]
+28.0 +25.3 85 +41 +41 опасность
перегрева
1012.9 1012.1 +33.2
15 17.09 штиль 0 9000 м 8/1 500 м
[Cu med, cong Ac As Cs]
+26.2 +24.6 91 +37 +37 очень
душно
1013.2 1012.4
18 17.09 штиль 0 9000 м 8/1 500 м
[Cu med, cong Cs]
+25.3 +24.1 93 +35 +35 очень
душно
1011.4 1010.6
21 17.09 штиль 0 9000 м 8/1 500 м
[Cu med, cong Cs]
+25.1 +23.8 93 +34 +34 очень
душно
1012.0 1011.2
00 18.09 В 2 10 км мгла {туман} 4/4 480 м
[Cb cap Ci fib]
+28.8 +24.5 78 +41 +45 опасность
перегрева
1013.7 1012.9 +24.2
03 18.09 В 2 9000 м мгла {туман} 5/4 500 м
[Cu med, cong Ci fib]
+31.9 +24.1 63 +44 +56 опасность
перегрева
1012.7 1011.9
06 18.09 В 3 9000 м мгла {туман} 5/4 500 м
[Cu Sc Ci fib]
+32.4 +24.9 65 +46 +54 опасность
перегрева
1010.2 1009.4
09 18.09 В 2 9000 м мгла {туман} 8/4 480 м
[Cb cap Ac As]
+30.1 +24.4 72 +42 +43 опасность
перегрева
1010.6 1009.8
12 18.09 СВ 1 9000 м мгла {туман} 8/3 500 м
[Cu med, cong Ac As]
+28.1 +24.9 83 +40 +40 очень
душно
1012.8 1012.0 +33.7
15 18.09 СВ 2 9000 м 9/3 500 м
[Cu med, cong Ac As]
+26.5 +24.8 90 +38 +38 очень
душно
1013.2 1012.4
18 18.09 штиль 0 9000 м 9/1 500 м
[Cu med, cong Ac As]
+26.1 +24.2 89 +36 +36 очень
душно
1010.9 1010.1
21 18.09 штиль 0 9000 м 8/3 500 м
[Cu med, cong Ac As Ci fib]
+25.4 +24.2 93 +35 +35 очень
душно
1012.5 1011.7
00 19.09 В 2 10 км 9/3 480 м
[Cb cap Ac As]
+29.1 +24.8 78 +42 +43 опасность
перегрева
1013.7 1012.9 +24.8
03 19.09 В 2 10 км мгла {туман} 6/4 500 м
[Cu Sc Ac As Ci fib]
+32.5 +25.3 66 +47 +57 опасность
перегрева
1012.9 1012.1
06 19.09 ЮВ 2 10 км мгла {туман} 8/3 500 м
[Cu med, cong Cs]
+32.0 +25.5 69 +47 +56 опасность
перегрева
1010.4 1009.6
09 19.09 В 2 9000 м мгла {туман} 6/3 500 м
[Cu med, cong Ac As Cs]
+30.0 +24.5 72 +42 +43 опасность
перегрева
1010.8 1010.0
12 19.09 штиль 0 9000 м мгла {туман} 8/1 500 м
[Cu med, cong Cs]
+27.3 +24.4 84 +38 +38 очень
душно
1012.4 1011.6 +33.5
15 19.09 штиль 0 9000 м 8/1 500 м
[Cu med, cong Ac As Cs]
+25.9 +24.7 93 +37 +37 очень
душно
1012.6 1011.8
18 19.09 штиль 0 9000 м 9/1 500 м
[Cu med, cong Ac As Cs]
+24.5 +22.7 90 +32 +32 очень
душно
1010.9 1010.1
21 19.09 СВ 2 9000 м 8/1 500 м
[Cu med, cong Cs]
+23.8 +22.1 90 +31 +31 очень
душно
1010.9 1010.1
00 20.09 СВ 2 9000 м мгла {туман} 9/1 500 м
[Cu med, cong Ac As Cs]
+28.6 +24.8 80 +41 +44 опасность
перегрева
1012.3 1011.5 +23.5
03 20.09 Ю 1 9000 м мгла {туман} 9/1 500 м
[Cu med, cong Ac As Cs]
+32.2 +25.1 66 +46 +58 опасность
перегрева
1011.3 1010.5
06 20.09 Ю 2 9000 м мгла {туман} 8/1 500 м
[Cu med, cong Ac As Ci fib]
+32.4 +25.4 67 +47 +56 опасность
перегрева
1009.4 1008.6
09 20.09 штиль 0 10 км мгла {туман} 8/1 500 м
[Cu Sc Ac As Cs]
+30.1 +24.4 72 +42 +43 опасность
перегрева
1009.4 1008.6
12 20.09 штиль 0 10 км мгла {туман} 9/1 500 м
[Cu med, cong Ac As]
+27.8 +24.9 84 +40 +40 очень
душно
1011.0 1010.2 +33.5
15 20.09 штиль 0 9000 м мгла {туман} 9/3 500 м
[Cu Sc Ac As]
+26.6 +24.5 88 +37 +37 очень
душно
1011.7 1010.9

 

Местоположение метеостанции Замбоанга (Филиппины): широта 6.90 долгота 122.06 высота над уровнем моря 6 м.

В архиве по умолчанию представлена погода в Замбоанге за последнюю неделю. Архивные данные за месяц целиком и за предыдущие месяцы, начиная с января 2011 года, Вы можете получить, выбрав интересующий диапазон дат из раскрывающегося списка и нажав кнопку "Ввод!".


*Определитесь, кто Вы:
робот инопланетянин человек

Внимание! Время в таблицах - всемирное. Для получения местного времени необходимо прибавить поправку, которая равна 8 ч.

Смотрите также архив погоды в соседних городах и на ближайших метеорологических станциях:

Погода в Дипологе (Филиппины) (237 км)
Погода в Котобато (Филиппины) (240 км)
Погода в Кагаян-де-Оро (Филиппины) (298 км)
Погода в Думагете (Филиппины) (300 км)
Погода в Генерал-Сантосе (Филиппины) (356 км)
Погода в Тагбиларане (Филиппины) (359 км)
Погода в Малайбалае (Филиппины) (361 км)
Погода в Давао (Филиппины) (397 км)
Погода в Мактане (Филиппины) (432 км)
Погода в Бутуане (Филиппины) (442 км)

Пояснения к столбцам:

Ветер - указаны скорость ветра в м/с - средняя за 10 мин, порывы в срок и между сроками (в фигурных скобках) и направление, откуда дует ветер: С - северный, СВ - северо-восточный, В - восточный, ЮВ - юго-восточный, Ю - южный, ЮЗ - юго-западный, З - западный, СЗ - северо-западный.
Видимость - горизонтальная дальность видимости в метрах или километрах. При видимости от 1 до 10 км при отсутствии осадков обычно наблюдается дымка, при ухудшении видимости до 1 км и менее - туман. В сухую погоду видимость может ухудшаться дымом, пылью или мглою.
Явления - указаны атмосферные явления, наблюдавшиеся в срок или в последний час перед сроком; фигурными скобками обозначены явления, наблюдавшиеся между сроками (за 1-3 часа до срока); квадратными скобками обозначены град или гололедные отложения с указанием их диаметра в мм.
Облачность - указаны через наклонную черту общая и нижняя облачность в баллах и высота нижней границы облаков в метрах; квадратными скобками обозначены формы облаков: Ci - перистые, Cs - перисто-слоистые, Cc - перисто-кучевые, Ac - высококучевые, As - высокослоистые, Sc - слоисто-кучевые, Ns - слоисто-дождевые, Cu - кучевые, Cb - кучево-дождевые. Подробнее классификацию облаков см. в Атласе облаков (PDF).
T - Температура воздуха - температура, измеренная на высоте 2 м над землей.
Td - Температура точки росы - температура, при понижении до которой содержащийся в воздухе водяной пар достигнет насыщения.
f - Относительная влажность воздуха - влажноcть воздуха, измеренная на высоте 2 м над землей.
Te - Эффективная температура - температура, которую ощущает одетый по сезону человек в тени. Характеристика душности погоды. При расчете учитывается влияние влажности воздуха и скорости ветра на теплоощущения человека.
Tes - Эффективная температура на солнце - температура, которую ощущает человек, с поправкой на солнечный нагрев. Характеристика знойности погоды. Зависит от высоты солнца над горизонтом, облачности и скорости ветра. Ночью, в пасмурную погоду, а также при ветре 12 м/с и более поправка равна нулю.
P - Атмосферное давление - приведенное к уровню моря атмосферное давление.
Po - Атмосферное давление - измеренное на уровне метеостанции атмосферное давление.
Tmin - Минимальная температура - минимум температуры воздуха на высоте 2 м над землей.
Tmax - Максимальная температура - максимум температуры воздуха на высоте 2 м над землей.
R - Количество осадков - Количество выпавших осадков за период времени, мм. При наведении курсора мыши на число - период времени, за который выпало указанное количество осадков.
R24 - Количество осадков - Количество выпавших осадков за 24 часа, мм.
S - Снежный покров - Высота снежного покрова, см. При наведении курсора мыши на число - состояние снежного покрова и степень покрытия местности в баллах.